Simultaneous Nadir Overpasses (SNOs) Predictions

Prediction of SNOs between METOP-A and TERRA Satellite Orbit:

Table of predicted SNOs for the next 14.0 days since TLE Epoch: 7/24/2021
Index Date (METOP-A) Time (METOP-A) Lat,Lon (METOP-A) SZA (METOP-A ) Date (TERRA) Time (TERRA) Lat,Lon (TERRA) SZA (TERRA ) Distance(km) Time Diff (sec)
1 07/25/2021 08:15:30 81.30, 101.62 64.25 07/25/2021 08:16:28 81.29, 101.47 64.25 2.59 58
2 07/25/2021 09:06:10 -81.29, -90.91 115.74 07/25/2021 09:05:55 -81.28, -90.99 115.76 1.71 15
3 07/28/2021 03:49:51 81.29, 167.98 64.87 07/28/2021 03:50:41 81.28, 167.86 64.87 2.32 50
4 07/28/2021 04:40:31 -81.29, -24.52 115.11 07/28/2021 04:40:08 -81.28, -24.58 115.13 1.36 23
5 07/30/2021 23:24:11 81.29,-125.69 65.54 07/30/2021 23:24:53 81.28,-125.79 65.53 2.57 42
6 07/31/2021 00:14:51 -81.29, 41.84 114.44 07/31/2021 00:14:20 -81.28, 41.80 114.47 1.51 31
7 08/02/2021 18:58:31 81.28, -58.99 66.27 08/02/2021 18:59:05 81.29, -59.11 66.28 2.35 34
8 08/02/2021 19:49:12 -81.29, 108.19 113.74 08/02/2021 19:48:33 -81.27, 108.13 113.77 2.17 39
9 08/05/2021 14:32:52 81.28, 7.30 67.01 08/05/2021 14:33:18 81.28, 7.16 67.01 2.31 26



Historial Predications of SNOs between METOP-A and TERRA
